FW6909 Weather Reports


Display with metric or nautical units.
time (UTC)temp
F
wind
direction
speed
MPH
gust
MPH
rain 1hr
in
rain 24hr
in
rain mn
in
humidity
%
barometer
mb
20260510191535 49 317 5.0 9.0 0.00 0.00 0.00 75 1014.7
20260510191030 49 290 4.0 11.0 0.00 0.00 0.00 75 1014.9
20260510190530 49 255 5.0 11.0 0.00 0.00 0.00 75 1014.9
20260510190044 49 269 3.0 9.0 0.00 0.00 0.00 75 1015.0
20260510185531 49 293 3.0 11.0 0.00 0.00 0.00 75 1015.0
20260510185031 49 269 5.0 11.0 0.00 0.00 0.00 74 1015.2
20260510184539 49 314 4.0 14.0 0.00 0.00 0.00 75 1015.3
20260510184031 49 295 5.0 14.0 0.00 0.00 0.00 74 1015.2
20260510183531 50 266 5.0 11.0 0.00 0.00 0.00 74 1015.5
20260510183036 50 275 5.0 11.0 0.00 0.00 0.00 74 1015.5
20260510182530 50 281 5.0 16.0 0.00 0.00 0.00 73 1015.6
20260510182031 50 300 6.0 16.0 0.00 0.00 0.00 73 1015.7
20260510181543 50 285 6.0 12.0 0.00 0.00 0.00 72 1015.6
20260510181032 50 275 5.0 13.0 0.00 0.00 0.00 72 1015.6
20260510180532 50 274 5.0 13.0 0.00 0.00 0.00 71 1015.6
20260510180035 50 300 7.0 15.0 0.00 0.00 0.00 71 1015.6
20260510175531 50 285 7.0 15.0 0.00 0.00 0.00 70 1015.7
20260510175031 51 269 9.0 15.0 0.00 0.00 0.00 69 1015.8
20260510174549 51 230 7.0 17.0 0.00 0.00 0.00 68 1015.9
20260510174032 51 302 7.0 19.0 0.00 0.00 0.00 67 1015.9
20260510173536 51 295 7.0 19.0 0.00 0.00 0.00 66 1015.9
20260510173040 52 311 4.0 15.0 0.00 0.00 0.00 65 1016.0
20260510172531 52 281 5.0 15.0 0.00 0.00 0.00 64 1016.1
20260510172034 52 261 7.0 18.0 0.00 0.00 0.00 63 1016.2
20260510171539 52 257 6.0 18.0 0.00 0.00 0.00 63 1016.2
20260510171030 52 289 5.0 11.0 0.00 0.00 0.00 63 1016.3
20260510170533 52 297 4.0 15.0 0.00 0.00 0.00 64 1016.4
20260510170053 52 11 6.0 15.0 0.00 0.00 0.00 63 1016.4
20260510165531 52 273 5.0 10.0 0.00 0.00 0.00 62 1016.5
20260510165032 52 297 5.0 11.0 0.00 0.00 0.00 62 1016.6
20260510164543 52 289 5.0 14.0 0.00 0.00 0.00 61 1016.8
20260510164030 53 286 4.0 14.0 0.00 0.00 0.00 61 1016.9
20260510163531 53 296 6.0 11.0 0.00 0.00 0.00 64 1017.0
20260510163042 52 279 6.0 12.0 0.00 0.00 0.00 64 1017.0
20260510162531 52 306 5.0 12.0 0.00 0.00 0.00 65 1017.2
20260510162033 52 293 7.0 15.0 0.00 0.00 0.00 64 1017.1
20260510161540 52 296 5.0 15.0 0.00 0.00 0.00 63 1017.3
20260510161031 53 302 7.0 14.0 0.00 0.00 0.00 61 1017.4
20260510160531 53 297 7.0 13.0 0.00 0.00 0.00 61 1017.5
20260510160046 53 284 4.0 11.0 0.00 0.00 0.00 62 1017.6
20260510155534 53 286 6.0 12.0 0.00 0.00 0.00 61 1017.6
20260510155030 53 257 6.0 12.0 0.00 0.00 0.00 61 1017.6
20260510154535 53 288 5.0 17.0 0.00 0.00 0.00 60 1017.7
20260510154030 53 309 9.0 17.0 0.00 0.00 0.00 59 1017.7
20260510153534 53 278 4.0 14.0 0.00 0.00 0.00 62 1017.7
20260510153043 53 286 6.0 14.0 0.00 0.00 0.00 62 1017.9
20260510152534 53 213 6.0 14.0 0.00 0.00 0.00 61 1018.0
20260510152030 53 314 4.0 14.0 0.00 0.00 0.00 61 1017.9
20260510151535 53 320 8.0 15.0 0.00 0.00 0.00 60 1018.0
20260510151030 53 318 8.0 15.0 0.00 0.00 0.00 60 1018.1
20260510150530 54 265 6.0 13.0 0.00 0.00 0.00 58 1018.2
20260510150045 54 252 6.0 13.0 0.00 0.00 0.00 55 1018.2
20260510145530 54 279 4.0 10.0 0.00 0.00 0.00 56 1018.3
20260510145031 54 298 5.0 11.0 0.00 0.00 0.00 57 1018.3
20260510144551 54 276 4.0 15.0 0.00 0.00 0.00 58 1018.4
20260510144030 54 261 6.0 15.0 0.00 0.00 0.00 57 1018.6
20260510143529 54 274 4.0 11.0 0.00 0.00 0.00 59 1018.6
20260510143035 54 266 4.0 9.0 0.00 0.00 0.00 59 1018.8
20260510142529 54 300 3.0 11.0 0.00 0.00 0.00 59 1018.9
20260510142030 54 283 3.0 11.0 0.00 0.00 0.00 57 1018.7
20260510141535 54 287 4.0 9.0 0.00 0.00 0.00 56 1019.0
20260510141030 54 345 4.0 10.0 0.00 0.00 0.00 57 1019.1
20260510140530 54 294 4.0 13.0 0.00 0.00 0.00 57 1019.2
20260510140052 54 250 6.0 13.0 0.00 0.00 0.00 55 1019.2
20260510135531 54 268 4.0 12.0 0.00 0.00 0.00 55 1019.2
20260510135031 55 330 4.0 11.0 0.00 0.00 0.00 55 1019.4
20260510134544 55 309 5.0 10.0 0.00 0.00 0.00 53 1019.6
20260510134031 55 307 5.0 11.0 0.00 0.00 0.00 54 1019.6
20260510133532 55 301 5.0 11.0 0.00 0.00 0.00 55 1019.5
20260510133036 54 266 4.0 9.0 0.00 0.00 0.00 55 1019.6
20260510132531 55 286 6.0 9.0 0.00 0.00 0.00 54 1019.6
20260510132033 55 281 4.0 9.0 0.00 0.00 0.00 55 1019.6
20260510131543 54 309 2.0 12.0 0.00 0.00 0.00 56 1019.6
20260510131030 53 282 3.0 12.0 0.00 0.00 0.00 56 1019.6
20260510130531 53 296 5.0 12.0 0.00 0.00 0.00 55 1019.8
20260510130045 54 278 4.0 10.0 0.00 0.00 0.00 55 1019.8
20260510125530 54 324 4.0 10.0 0.00 0.00 0.00 55 1019.9
20260510125030 54 288 6.0 12.0 0.00 0.00 0.00 54 1019.9
20260510124553 54 278 4.0 12.0 0.00 0.00 0.00 54 1020.1
20260510124032 54 205 4.0 11.0 0.00 0.00 0.00 53 1020.2
20260510123531 54 292 3.0 11.0 0.00 0.00 0.00 52 1020.3
20260510123042 54 272 4.0 11.0 0.00 0.00 0.00 51 1020.3
20260510122532 55 261 4.0 10.0 0.00 0.00 0.00 51 1020.4
20260510122033 55 326 4.0 10.0 0.00 0.00 0.00 52 1020.5
20260510121536 55 300 3.0 9.0 0.00 0.00 0.00 52 1020.7
20260510121031 54 297 4.0 9.0 0.00 0.00 0.00 52 1020.6
20260510120532 54 261 3.0 9.0 0.00 0.00 0.00 51 1020.7
20260510120034 54 355 1.0 6.0 0.00 0.00 0.00 51 1020.8
20260510115530 53 285 3.0 7.0 0.00 0.00 0.00 51 1020.9
20260510115031 54 284 1.0 7.0 0.00 0.00 0.00 51 1020.9
20260510114544 54 267 4.0 7.0 0.00 0.00 0.00 51 1021.0
20260510114031 53 320 2.0 12.0 0.00 0.00 0.00 51 1021.1
20260510113532 53 328 2.0 12.0 0.00 0.00 0.00 50 1021.2
20260510113042 53 300 4.0 12.0 0.00 0.00 0.00 52 1021.1
20260510112530 52 288 3.0 10.0 0.00 0.00 0.00 53 1021.1
20260510112030 53 309 3.0 9.0 0.00 0.00 0.00 53 1021.3
20260510111543 52 286 4.0 9.0 0.00 0.00 0.00 53 1021.4
20260510111030 53 299 4.0 9.0 0.00 0.00 0.00 53 1021.5
20260510110531 53 297 3.0 8.0 0.00 0.00 0.00 53 1021.5
20260510110038 53 304 2.0 8.0 0.00 0.00 0.00 52 1021.5
20260510105531 53 242 2.0 7.0 0.00 0.00 0.00 54 1021.5
20260510105030 52 297 3.0 8.0 0.00 0.00 0.00 54 1021.6
20260510104537 52 258 2.0 9.0 0.00 0.00 0.00 55 1021.6
20260510104030 52 288 5.0 9.0 0.00 0.00 0.00 53 1021.7
20260510103531 52 281 3.0 8.0 0.00 0.00 0.00 54 1021.7
20260510103036 52 240 3.0 8.0 0.00 0.00 0.00 53 1021.9
20260510102531 52 285 2.0 7.0 0.00 0.00 0.00 53 1021.9
20260510102030 52 302 2.0 7.0 0.00 0.00 0.00 54 1021.9
20260510101545 52 254 3.0 7.0 0.00 0.00 0.00 53 1022.0
20260510101030 51 276 3.0 8.0 0.00 0.00 0.00 52 1022.1
20260510100530 51 290 2.0 8.0 0.00 0.00 0.00 52 1022.3
20260510100041 51 291 3.0 8.0 0.00 0.00 0.00 53 1022.2
20260510095530 51 236 2.0 6.0 0.00 0.00 0.00 56 1022.2
20260510095031 51 294 2.0 8.0 0.00 0.00 0.00 56 1022.3
20260510094546 50 283 1.0 8.0 0.00 0.00 0.00 58 1022.4
20260510094031 50 315 4.0 8.0 0.00 0.00 0.00 56 1022.5
20260510093531 50 343 2.0 7.0 0.00 0.00 0.00 57 1022.5
20260510093035 50 308 2.0 8.0 0.00 0.00 0.00 57 1022.6
20260510092531 50 291 3.0 8.0 0.00 0.00 0.00 56 1022.7
20260510092030 50 345 2.0 9.0 0.00 0.00 0.00 60 1022.6
20260510091535 50 341 3.0 9.0 0.00 0.00 0.00 60 1022.6
20260510091033 50 322 3.0 8.0 0.00 0.00 0.00 61 1022.7
20260510090530 50 300 3.0 7.0 0.00 0.00 0.00 64 1022.9
20260510090035 50 330 3.0 7.0 0.00 0.00 0.00 67 1022.8
20260510085530 50 328 0.0 6.0 0.00 0.00 0.00 70 1023.0
20260510085030 49 314 2.0 6.0 0.00 0.00 0.00 70 1023.1
20260510084543 48 291 3.0 6.0 0.00 0.00 0.00 72 1023.2
20260510084033 48 281 1.0 6.0 0.00 0.00 0.00 73 1023.1
20260510083530 48 282 1.0 6.0 0.00 0.00 0.00 74 1023.1
20260510083037 48 356 1.0 5.0 0.00 0.00 0.00 77 1023.2
20260510082529 47 307 1.0 5.0 0.00 0.00 0.00 76 1023.4
20260510082033 47 309 2.0 5.0 0.00 0.00 0.00 77 1023.2
20260510081543 47 266 2.0 5.0 0.00 0.00 0.00 78 1023.3
20260510081031 47 298 1.0 3.0 0.00 0.00 0.00 78 1023.3
20260510080532 47 347 1.0 3.0 0.00 0.00 0.00 78 1023.4
20260510080035 46 282 1.0 4.0 0.00 0.00 0.00 79 1023.5
20260510075530 46 286 1.0 5.0 0.00 0.00 0.00 79 1023.7
20260510075030 46 267 2.0 5.0 0.00 0.00 0.00 79 1023.7
20260510074536 46 289 1.0 4.0 0.00 0.00 0.00 79 1023.8
20260510074031 46 311 2.0 4.0 0.00 0.00 0.00 80 1023.8
20260510073533 46 293 0.0 3.0 0.00 0.00 0.00 82 1023.8
20260510073041 45 335 1.0 3.0 0.00 0.00 0.00 82 1023.9
20260510072531 45 288 0.0 2.0 0.00 0.00 0.00 82 1023.9
20260510072033 45 290 0.0 2.0 0.00 0.00 0.00 83 1023.8
20260510071539 44 319 0.0 2.0 0.00 0.00 0.00 83 1023.9
20260510071027 44 307 0.0 2.0 0.00 0.00 0.00 84 1024.0
20260510070530 43 293 0.0 3.0 0.00 0.00 0.00 84 1024.1
20260510070040 43 303 0.0 3.0 0.00 0.00 0.00 84 1024.1
20260510065532 43 278 0.0 3.0 0.00 0.00 0.00 84 1024.2
20260510065031 43 315 0.0 2.0 0.00 0.00 0.00 84 1024.2
20260510064543 43 285 0.0 2.0 0.00 0.00 0.00 84 1024.3
20260510064031 43 283 1.0 2.0 0.00 0.00 0.00 85 1024.2
20260510063531 43 285 0.0 2.0 0.00 0.00 0.00 85 1024.2
20260510063036 43 0 0.0 2.0 0.00 0.00 0.00 85 1024.2
20260510062532 43 350 0.0 2.0 0.00 0.00 0.00 85 1024.3
20260510062032 43 0 0.0 2.0 0.00 0.00 0.00 85 1024.3
20260510061542 42 0 0.0 2.0 0.00 0.00 0.00 85 1024.3
20260510061032 43 272 0.0 1.0 0.00 0.00 0.00 85 1024.3
20260510060531 44 240 0.0 0.0 0.00 0.00 0.00 86 1024.3
20260510060037 44 0 0.0 0.0 0.00 0.00 0.00 87 1024.3
20260510055532 43 0 0.0 1.0 0.00 0.00 0.00 86 1024.3
20260510055032 42 0 0.0 1.0 0.00 0.00 0.00 86 1024.3
20260510054557 42 0 0.0 0.0 0.00 0.00 0.00 87 1024.3
20260510054031 42 0 0.0 0.0 0.00 0.00 0.00 87 1024.4
20260510053533 41 0 0.0 0.0 0.00 0.00 0.00 87 1024.4
20260510053045 40 0 0.0 1.0 0.00 0.00 0.00 87 1024.4
20260510052531 40 0 0.0 1.0 0.00 0.00 0.00 87 1024.4
20260510052031 39 0 0.0 0.0 0.00 0.00 0.00 87 1024.4
20260510051543 38 0 0.0 0.0 0.00 0.00 0.00 87 1024.4
20260510051031 38 0 0.0 0.0 0.00 0.00 0.00 87 1024.5
20260510050535 38 0 0.0 0.0 0.00 0.00 0.00 87 1024.4
20260510050038 38 0 0.0 1.0 0.00 0.00 0.00 87 1024.5
20260510045531 38 0 0.0 1.0 0.00 0.00 0.00 87 1024.7
20260510045031 38 0 0.0 1.0 0.00 0.00 0.00 87 1024.6
20260510044542 38 0 0.0 1.0 0.00 0.00 0.00 87 1024.5
20260510044031 38 0 0.0 0.0 0.00 0.00 0.00 87 1024.6
20260510043532 38 0 0.0 0.0 0.00 0.00 0.00 87 1024.5
20260510043035 37 0 0.0 0.0 0.00 0.00 0.00 87 1024.4
20260510042531 38 0 0.0 0.0 0.00 0.00 0.00 87 1024.5
20260510042032 38 0 0.0 0.0 0.00 0.00 0.00 87 1024.6
20260510041600 38 0 0.0 0.0 0.00 0.00 0.00 87 1024.4
20260510041031 38 0 0.0 0.0 0.00 0.00 0.00 87 1024.6
20260510040531 38 0 0.0 0.0 0.00 0.00 0.00 87 1024.6
20260510040042 38 0 0.0 0.0 0.00 0.00 0.00 87 1024.6
20260510035531 38 0 0.0 0.0 0.00 0.00 0.00 86 1024.7
20260510035031 38 0 0.0 0.0 0.00 0.00 0.00 86 1024.7
20260510034542 38 0 0.0 0.0 0.00 0.00 0.00 86 1024.7
20260510034031 38 0 0.0 0.0 0.00 0.00 0.00 86 1024.6
20260510033531 38 0 0.0 0.0 0.00 0.00 0.00 86 1024.6
20260510033040 38 0 0.0 0.0 0.00 0.00 0.00 86 1024.8
20260510032531 38 0 0.0 0.0 0.00 0.00 0.00 86 1024.7
20260510032031 38 0 0.0 0.0 0.00 0.00 0.00 86 1024.7
20260510031551 38 0 0.0 0.0 0.00 0.00 0.00 86 1024.8
20260510031032 38 0 0.0 0.0 0.00 0.00 0.00 86 1024.9
20260510030531 38 0 0.0 0.0 0.00 0.00 0.00 86 1025.0
20260510030044 38 0 0.0 0.0 0.00 0.00 0.00 86 1024.9
20260510025531 38 0 0.0 0.0 0.00 0.00 0.00 86 1025.0
20260510025031 38 0 0.0 1.0 0.00 0.00 0.00 86 1024.9
20260510024551 39 0 0.0 1.0 0.00 0.00 0.00 86 1024.9
20260510024032 39 0 0.0 0.0 0.00 0.00 0.00 86 1024.9
20260510023531 39 0 0.0 0.0 0.00 0.00 0.00 86 1024.9
20260510023036 39 0 0.0 0.0 0.00 0.00 0.00 86 1025.0
20260510022533 39 0 0.0 0.0 0.00 0.00 0.00 86 1024.9
20260510022031 38 0 0.0 0.0 0.00 0.00 0.00 86 1024.9
20260510021535 38 0 0.0 0.0 0.00 0.00 0.00 85 1025.0
20260510021031 38 0 0.0 0.0 0.00 0.00 0.00 85 1025.1
20260510020531 38 0 0.0 0.0 0.00 0.00 0.00 85 1025.0
20260510020042 38 0 0.0 0.0 0.00 0.00 0.00 85 1024.8
20260510015534 38 0 0.0 0.0 0.00 0.00 0.00 85 1024.9
20260510015031 38 0 0.0 0.0 0.00 0.00 0.00 85 1025.0
20260510014542 38 0 0.0 0.0 0.00 0.00 0.00 85 1025.0
20260510014031 39 0 0.0 0.0 0.00 0.00 0.00 84 1025.0
20260510013531 39 0 0.0 0.0 0.00 0.00 0.00 84 1024.9
20260510013048 39 0 0.0 1.0 0.00 0.00 0.00 84 1025.1
20260510012531 40 0 0.0 1.0 0.00 0.00 0.00 84 1025.1
20260510012031 40 239 0.0 1.0 0.00 0.00 0.00 84 1025.0
20260510011543 40 239 0.0 2.0 0.00 0.00 0.00 84 1025.1
20260510011031 40 0 0.0 2.0 0.00 0.00 0.00 84 1025.0
20260510010531 40 0 0.0 2.0 0.00 0.00 0.00 84 1025.2
20260510010043 40 0 0.0 3.0 0.00 0.00 0.00 84 1025.2
20260510005531 40 271 1.0 3.0 0.00 0.00 0.00 84 1025.2
20260510005032 41 240 0.0 2.0 0.00 0.00 0.00 83 1025.2
20260510004547 41 275 0.0 2.0 0.00 0.00 0.00 83 1025.2
20260510004031 41 250 0.0 2.0 0.00 0.00 0.00 83 1025.3
20260510003531 41 264 0.0 1.0 0.00 0.00 0.00 83 1025.3
20260510003035 42 244 0.0 1.0 0.00 0.00 0.00 83 1025.2
20260510002534 42 243 0.0 1.0 0.00 0.00 0.00 83 1025.3
20260510002030 42 0 0.0 0.0 0.00 0.00 0.00 82 1025.3
20260510001536 42 0 0.0 1.0 0.00 0.00 0.00 82 1025.4
20260510001031 42 0 0.0 1.0 0.00 0.00 0.00 82 1025.3
20260510000533 42 254 0.0 1.0 0.00 0.00 0.00 81 1025.5
20260510000043 43 0 0.0 1.0 0.00 0.00 0.00 81 1025.5
20260509235531 43 0 0.0 1.0 0.00 0.00 0.00 81 1025.5
20260509235030 43 0 0.0 1.0 0.00 0.00 0.00 80 1025.6
20260509234542 44 0 0.0 1.0 0.00 0.00 0.00 80 1025.5
20260509234032 44 0 0.0 1.0 0.00 0.00 0.00 80 1025.5
20260509233530 44 254 0.0 1.0 0.00 0.00 0.00 80 1025.6
20260509233041 44 0 0.0 0.0 0.00 0.00 0.00 80 1025.4
20260509232533 44 0 0.0 0.0 0.00 0.00 0.00 80 1025.3
20260509232031 44 0 0.0 0.0 0.00 0.00 0.00 79 1025.4
20260509231550 44 0 0.0 0.0 0.00 0.00 0.00 79 1025.6
20260509231033 44 0 0.0 0.0 0.00 0.00 0.00 79 1025.5
20260509230530 44 0 0.0 0.0 0.00 0.00 0.00 79 1025.5
20260509230044 44 0 0.0 0.0 0.00 0.00 0.00 79 1025.5
20260509225534 44 0 0.0 2.0 0.00 0.00 0.00 79 1025.6
20260509225031 45 314 0.0 2.0 0.00 0.00 0.00 78 1025.5
20260509224541 45 342 0.0 1.0 0.00 0.00 0.00 78 1025.6
20260509224033 45 0 0.0 1.0 0.00 0.00 0.00 78 1025.6
20260509223531 45 0 0.0 1.0 0.00 0.00 0.00 78 1025.5
20260509223049 45 0 0.0 2.0 0.00 0.00 0.00 78 1025.6
20260509222535 45 0 0.0 2.0 0.00 0.00 0.00 78 1025.6
20260509222035 45 9 0.0 2.0 0.00 0.00 0.00 77 1025.5
20260509221545 45 0 0.0 2.0 0.00 0.00 0.00 77 1025.5
20260509221031 45 0 0.0 5.0 0.00 0.00 0.00 77 1025.6
20260509220530 45 65 1.0 5.0 0.00 0.00 0.00 77 1025.7
20260509220045 45 56 2.0 5.0 0.00 0.00 0.00 77 1025.7
20260509215533 45 80 2.0 7.0 0.00 0.00 0.00 77 1025.8
20260509215032 45 81 3.0 7.0 0.00 0.00 0.00 77 1025.8
20260509214542 45 72 4.0 7.0 0.00 0.00 0.00 77 1025.9
20260509214031 45 86 3.0 7.0 0.00 0.00 0.00 77 1025.8
20260509213531 45 66 3.0 7.0 0.00 0.00 0.00 77 1025.8
20260509213050 45 115 2.0 6.0 0.00 0.00 0.00 77 1025.8
20260509212533 46 39 1.0 5.0 0.00 0.00 0.00 76 1025.9
20260509212033 46 15 1.0 5.0 0.00 0.00 0.00 76 1025.7
20260509211548 46 78 1.0 5.0 0.00 0.00 0.00 76 1025.9
20260509211031 46 21 1.0 4.0 0.00 0.00 0.00 76 1025.9
20260509210534 46 0 0.0 4.0 0.00 0.00 0.00 77 1025.8
20260509210053 46 4 0.0 2.0 0.00 0.00 0.00 76 1025.8
20260509205531 46 0 1.0 4.0 0.00 0.00 0.00 75 1025.8
20260509205033 46 0 0.0 5.0 0.00 0.00 0.00 73 1025.7
20260509204542 47 321 1.0 5.0 0.00 0.00 0.00 73 1025.6
20260509204031 47 330 1.0 5.0 0.00 0.00 0.00 71 1025.6
20260509203531 47 347 1.0 5.0 0.00 0.00 0.00 69 1025.5
20260509203040 48 37 2.0 5.0 0.00 0.00 0.00 67 1025.5
20260509202534 48 104 2.0 8.0 0.00 0.00 0.00 65 1025.2
20260509202031 48 46 3.0 8.0 0.00 0.00 0.00 65 1025.2
20260509201538 48 6 2.0 9.0 0.00 0.00 0.00 65 1025.1
20260509201031 48 134 2.0 9.0 0.00 0.00 0.00 65 1024.9
20260509200532 49 77 1.0 11.0 0.00 0.00 0.00 66 1024.8
20260509200048 48 62 5.0 11.0 0.00 0.00 0.00 66 1024.7
20260509195534 49 77 5.0 9.0 0.00 0.00 0.00 65 1024.6
20260509195031 49 81 4.0 10.0 0.00 0.00 0.00 65 1024.5
20260509194543 49 78 5.0 11.0 0.00 0.00 0.00 65 1024.5
20260509194031 49 82 4.0 11.0 0.00 0.00 0.00 64 1024.4
20260509193530 49 81 5.0 11.0 0.00 0.00 0.00 64 1024.5
20260509193043 49 47 5.0 10.0 0.00 0.00 0.00 64 1024.4
20260509192530 50 57 4.0 11.0 0.00 0.00 0.00 64 1024.3
20260509192030 50 63 5.0 11.0 0.00 0.00 0.00 64 1024.2